Year,Month,Day,Hour,Minute,Value (Times are PST for temperature in C)
2017,06,26,00,00,18.80
2017,06,26,00,01,18.80
2017,06,26,00,02,18.80
2017,06,26,00,03,18.80
2017,06,26,00,04,18.80
2017,06,26,00,05,18.80
2017,06,26,00,06,18.80
2017,06,26,00,07,18.80
2017,06,26,00,08,18.80
2017,06,26,00,09,18.80
2017,06,26,00,10,18.80
2017,06,26,00,11,18.80
2017,06,26,00,12,18.80
2017,06,26,00,13,18.80
2017,06,26,00,14,18.80
2017,06,26,00,15,18.80
2017,06,26,00,16,18.80
2017,06,26,00,17,18.80
2017,06,26,00,18,18.80
2017,06,26,00,19,18.80
2017,06,26,00,20,18.80
2017,06,26,00,21,18.80
2017,06,26,00,22,18.90
2017,06,26,00,23,18.90
2017,06,26,00,24,18.90
2017,06,26,00,25,18.90
2017,06,26,00,26,18.90
2017,06,26,00,27,19.00
2017,06,26,00,28,19.00
2017,06,26,00,29,19.00
2017,06,26,00,30,19.00
2017,06,26,00,31,19.10
2017,06,26,00,32,19.10
2017,06,26,00,33,19.10
2017,06,26,00,34,19.10
2017,06,26,00,35,19.20
2017,06,26,00,36,19.20
2017,06,26,00,37,19.20
2017,06,26,00,38,19.20
2017,06,26,00,39,19.20
2017,06,26,00,40,19.20
2017,06,26,00,41,19.20
2017,06,26,00,42,19.20
2017,06,26,00,43,19.20
2017,06,26,00,44,19.20
2017,06,26,00,45,19.20
2017,06,26,00,46,19.30
2017,06,26,00,47,19.30
2017,06,26,00,48,19.30
2017,06,26,00,49,19.30
2017,06,26,00,50,19.20
2017,06,26,00,51,19.20
2017,06,26,00,52,19.20
2017,06,26,00,53,19.20
2017,06,26,00,54,19.20
2017,06,26,00,55,19.20
2017,06,26,00,56,19.20
2017,06,26,00,57,19.10
2017,06,26,00,58,19.10
2017,06,26,00,59,19.20
2017,06,26,01,00,19.20
2017,06,26,01,01,19.20
2017,06,26,01,02,19.20
2017,06,26,01,03,19.20
2017,06,26,01,04,19.20
2017,06,26,01,05,19.20
2017,06,26,01,06,19.20
2017,06,26,01,07,19.20
2017,06,26,01,08,19.20
2017,06,26,01,09,19.20
2017,06,26,01,10,19.30
2017,06,26,01,11,19.30
2017,06,26,01,12,19.30
2017,06,26,01,13,19.30
2017,06,26,01,14,19.30
2017,06,26,01,15,19.30
2017,06,26,01,16,19.30
2017,06,26,01,17,19.40
2017,06,26,01,18,19.40
2017,06,26,01,19,19.40
2017,06,26,01,20,19.40
2017,06,26,01,21,19.50
2017,06,26,01,22,19.50
2017,06,26,01,23,19.60
2017,06,26,01,24,19.60
2017,06,26,01,25,19.60
2017,06,26,01,26,19.60
2017,06,26,01,27,19.60
2017,06,26,01,28,19.60
2017,06,26,01,29,19.60
2017,06,26,01,30,19.60
2017,06,26,01,31,19.60
2017,06,26,01,32,19.60
2017,06,26,01,33,19.60
2017,06,26,01,34,19.70
2017,06,26,01,35,19.80
2017,06,26,01,36,19.90
2017,06,26,01,37,20.00
2017,06,26,01,38,20.10
2017,06,26,01,39,20.20
2017,06,26,01,40,20.30
2017,06,26,01,41,20.30
2017,06,26,01,42,20.30
2017,06,26,01,43,20.40
2017,06,26,01,44,20.40
2017,06,26,01,45,20.40
2017,06,26,01,46,20.40
2017,06,26,01,47,20.50
2017,06,26,01,48,20.60
2017,06,26,01,49,20.60
2017,06,26,01,50,20.70
2017,06,26,01,51,20.80
2017,06,26,01,52,20.80
2017,06,26,01,53,20.90
2017,06,26,01,54,21.00
2017,06,26,01,55,21.10
2017,06,26,01,56,21.20
2017,06,26,01,57,21.20
2017,06,26,01,58,21.40
2017,06,26,01,59,21.50
2017,06,26,02,00,21.60
2017,06,26,02,01,21.70
2017,06,26,02,02,21.70
2017,06,26,02,03,21.80
2017,06,26,02,04,21.80
2017,06,26,02,05,21.80
2017,06,26,02,06,21.90
2017,06,26,02,07,21.90
2017,06,26,02,08,22.00
2017,06,26,02,09,22.00
2017,06,26,02,10,22.10
2017,06,26,02,11,22.10
2017,06,26,02,12,22.20
2017,06,26,02,13,22.30
2017,06,26,02,14,22.30
2017,06,26,02,15,22.30
2017,06,26,02,16,22.40
2017,06,26,02,17,22.40
2017,06,26,02,18,22.50
2017,06,26,02,19,22.60
2017,06,26,02,20,22.60
2017,06,26,02,21,22.70
2017,06,26,02,22,22.70
2017,06,26,02,23,22.70
2017,06,26,02,24,22.70
2017,06,26,02,25,22.70
2017,06,26,02,26,22.60
2017,06,26,02,27,22.50
2017,06,26,02,28,22.50
2017,06,26,02,29,22.40
2017,06,26,02,30,22.30
2017,06,26,02,31,22.30
2017,06,26,02,32,22.30
2017,06,26,02,33,22.30
2017,06,26,02,34,22.30
2017,06,26,02,35,22.30
2017,06,26,02,36,22.30
2017,06,26,02,37,22.30
2017,06,26,02,38,22.20
2017,06,26,02,39,22.20
2017,06,26,02,40,22.20
2017,06,26,02,41,22.10
2017,06,26,02,42,22.00
2017,06,26,02,43,21.90
2017,06,26,02,44,21.90
2017,06,26,02,45,21.80
2017,06,26,02,46,21.70
2017,06,26,02,47,21.70
2017,06,26,02,48,21.70
2017,06,26,02,49,21.70
2017,06,26,02,50,21.60
2017,06,26,02,51,21.60
2017,06,26,02,52,21.50
2017,06,26,02,53,21.50
2017,06,26,02,54,21.40
2017,06,26,02,55,21.40
2017,06,26,02,56,21.30
2017,06,26,02,57,21.30
2017,06,26,02,58,21.30
2017,06,26,02,59,21.30
2017,06,26,03,00,21.20
2017,06,26,03,01,21.20
2017,06,26,03,02,21.10
2017,06,26,03,03,21.10
2017,06,26,03,04,21.00
2017,06,26,03,05,20.90
2017,06,26,03,06,21.00
2017,06,26,03,07,21.10
2017,06,26,03,08,21.20
2017,06,26,03,09,21.20
2017,06,26,03,10,21.30
2017,06,26,03,11,21.30
2017,06,26,03,12,21.20
2017,06,26,03,13,21.20
2017,06,26,03,14,21.10
2017,06,26,03,15,21.10
2017,06,26,03,16,20.90
2017,06,26,03,17,20.80
2017,06,26,03,18,20.80
2017,06,26,03,19,20.70
2017,06,26,03,20,20.60
2017,06,26,03,21,20.50
2017,06,26,03,22,20.50
2017,06,26,03,23,20.40
2017,06,26,03,24,20.40
2017,06,26,03,25,20.40
2017,06,26,03,26,20.30
2017,06,26,03,27,20.10
2017,06,26,03,28,20.00
2017,06,26,03,29,19.80
2017,06,26,03,30,19.50
2017,06,26,03,31,19.30
2017,06,26,03,32,19.00
2017,06,26,03,33,18.80
2017,06,26,03,34,18.60
2017,06,26,03,35,18.40
2017,06,26,03,36,18.20
2017,06,26,03,37,18.10
2017,06,26,03,38,17.90
2017,06,26,03,39,17.80
2017,06,26,03,40,17.70
2017,06,26,03,41,17.60
2017,06,26,03,42,17.60
2017,06,26,03,43,17.50
2017,06,26,03,44,17.50
2017,06,26,03,45,17.50
2017,06,26,03,46,17.60
2017,06,26,03,47,17.70
2017,06,26,03,48,17.70
2017,06,26,03,49,17.80
2017,06,26,03,50,17.90
2017,06,26,03,51,18.00
2017,06,26,03,52,18.10
2017,06,26,03,53,18.10
2017,06,26,03,54,18.20
2017,06,26,03,55,18.20
2017,06,26,03,56,18.30
2017,06,26,03,57,18.40
2017,06,26,03,58,18.40
2017,06,26,03,59,18.40
2017,06,26,04,00,18.50
2017,06,26,04,01,18.50
2017,06,26,04,02,18.50
2017,06,26,04,03,18.50
2017,06,26,04,04,18.60
2017,06,26,04,05,18.60
2017,06,26,04,06,18.70
2017,06,26,04,07,18.70
2017,06,26,04,08,18.70
2017,06,26,04,09,18.60
2017,06,26,04,10,18.50
2017,06,26,04,11,18.40
2017,06,26,04,12,18.30
2017,06,26,04,13,18.30
2017,06,26,04,14,18.20
2017,06,26,04,15,18.10
2017,06,26,04,16,18.10
2017,06,26,04,17,18.10
2017,06,26,04,18,18.00
2017,06,26,04,19,18.00
2017,06,26,04,20,18.00
2017,06,26,04,21,17.90
2017,06,26,04,22,17.90
2017,06,26,04,23,17.80
2017,06,26,04,24,17.70
2017,06,26,04,25,17.60
2017,06,26,04,26,17.60
2017,06,26,04,27,17.60
2017,06,26,04,28,17.60
2017,06,26,04,29,17.60
2017,06,26,04,30,17.60
2017,06,26,04,31,17.60
2017,06,26,04,32,17.60
2017,06,26,04,33,17.70
2017,06,26,04,34,17.70
2017,06,26,04,35,17.70
2017,06,26,04,36,17.80
2017,06,26,04,37,17.90
2017,06,26,04,38,18.00
2017,06,26,04,39,18.10
2017,06,26,04,40,18.20
2017,06,26,04,41,18.20
2017,06,26,04,42,18.20
2017,06,26,04,43,18.20
2017,06,26,04,44,18.20
2017,06,26,04,45,18.20
2017,06,26,04,46,18.20
2017,06,26,04,47,18.20
2017,06,26,04,48,18.20
2017,06,26,04,49,18.20
2017,06,26,04,50,18.20
2017,06,26,04,51,18.20
2017,06,26,04,52,18.20
2017,06,26,04,53,18.20
2017,06,26,04,54,18.20
2017,06,26,04,55,18.20
2017,06,26,04,56,18.10
2017,06,26,04,57,18.10
2017,06,26,04,58,18.10
2017,06,26,04,59,18.10
2017,06,26,05,00,18.00
2017,06,26,05,01,18.00
2017,06,26,05,02,18.00
2017,06,26,05,03,17.90
2017,06,26,05,04,17.90
2017,06,26,05,05,17.80
2017,06,26,05,06,17.80
2017,06,26,05,07,17.70
2017,06,26,05,08,17.70
2017,06,26,05,09,17.70
2017,06,26,05,10,17.60
2017,06,26,05,11,17.60
2017,06,26,05,12,17.50
2017,06,26,05,13,17.50
2017,06,26,05,14,17.40
2017,06,26,05,15,17.30
2017,06,26,05,16,17.30
2017,06,26,05,17,17.30
2017,06,26,05,18,17.30
2017,06,26,05,19,17.20
2017,06,26,05,20,17.20
2017,06,26,05,21,17.20
2017,06,26,05,22,17.10
2017,06,26,05,23,17.10
2017,06,26,05,24,17.00
2017,06,26,05,25,17.00
2017,06,26,05,26,16.90
2017,06,26,05,27,16.80
2017,06,26,05,28,16.80
2017,06,26,05,29,16.70
2017,06,26,05,30,16.60
2017,06,26,05,31,16.50
2017,06,26,05,32,16.40
2017,06,26,05,33,16.30
2017,06,26,05,34,16.20
2017,06,26,05,35,16.20
2017,06,26,05,36,16.10
2017,06,26,05,37,16.10
2017,06,26,05,38,16.00
2017,06,26,05,39,16.00
2017,06,26,05,40,15.90
2017,06,26,05,41,15.90
2017,06,26,05,42,15.80
2017,06,26,05,43,15.80
2017,06,26,05,44,15.80
2017,06,26,05,45,15.70
2017,06,26,05,46,15.70
2017,06,26,05,47,15.60
2017,06,26,05,48,15.60
2017,06,26,05,49,15.60
2017,06,26,05,50,15.60
2017,06,26,05,51,15.50
2017,06,26,05,52,15.50
2017,06,26,05,53,15.40
2017,06,26,05,54,15.40
2017,06,26,05,55,15.40
2017,06,26,05,56,15.40
2017,06,26,05,57,15.40
2017,06,26,05,58,15.40
2017,06,26,05,59,15.40
2017,06,26,06,00,15.40
2017,06,26,06,01,15.40
2017,06,26,06,02,15.40
2017,06,26,06,03,15.40
2017,06,26,06,04,15.30
2017,06,26,06,05,15.30
2017,06,26,06,06,15.30
2017,06,26,06,07,15.30
2017,06,26,06,08,15.30
2017,06,26,06,09,15.20
2017,06,26,06,10,15.20
2017,06,26,06,11,15.20
2017,06,26,06,12,15.20
2017,06,26,06,13,15.20
2017,06,26,06,14,15.20
2017,06,26,06,15,15.20
2017,06,26,06,16,15.10
2017,06,26,06,17,15.10
2017,06,26,06,18,15.10
2017,06,26,06,19,15.10
2017,06,26,06,20,15.10
2017,06,26,06,21,15.10
2017,06,26,06,22,15.10
2017,06,26,06,23,15.10
2017,06,26,06,24,15.10
2017,06,26,06,25,15.10
2017,06,26,06,26,15.10
2017,06,26,06,27,15.10
2017,06,26,06,28,15.10
2017,06,26,06,29,15.00
2017,06,26,06,30,15.00
2017,06,26,06,31,14.90
2017,06,26,06,32,14.90
2017,06,26,06,33,14.80
2017,06,26,06,34,14.80
2017,06,26,06,35,14.80
2017,06,26,06,36,14.80
2017,06,26,06,37,14.80
2017,06,26,06,38,14.80
2017,06,26,06,39,14.80
2017,06,26,06,40,14.80
2017,06,26,06,41,14.80
2017,06,26,06,42,14.80
2017,06,26,06,43,14.80
2017,06,26,06,44,14.80
2017,06,26,06,45,14.80
2017,06,26,06,46,14.80
2017,06,26,06,47,14.80
2017,06,26,06,48,14.70
2017,06,26,06,49,14.70
2017,06,26,06,50,14.70
2017,06,26,06,51,14.70
2017,06,26,06,52,14.60
2017,06,26,06,53,14.60
2017,06,26,06,54,14.60
2017,06,26,06,55,14.60
2017,06,26,06,56,14.60
2017,06,26,06,57,14.60
2017,06,26,06,58,14.60
2017,06,26,06,59,14.60
2017,06,26,07,00,14.60
2017,06,26,07,01,14.60
2017,06,26,07,02,14.60
2017,06,26,07,03,14.70
2017,06,26,07,04,14.70
2017,06,26,07,05,14.70
2017,06,26,07,06,14.70
2017,06,26,07,07,14.80
2017,06,26,07,08,14.80
2017,06,26,07,09,14.80
2017,06,26,07,10,14.90
2017,06,26,07,11,14.90
2017,06,26,07,12,14.90
2017,06,26,07,13,15.00
2017,06,26,07,14,15.00
2017,06,26,07,15,15.10
2017,06,26,07,16,15.10
2017,06,26,07,17,15.20
2017,06,26,07,18,15.20
2017,06,26,07,19,15.20
2017,06,26,07,20,15.20
2017,06,26,07,21,15.20
2017,06,26,07,22,15.30
2017,06,26,07,23,15.30
2017,06,26,07,24,15.30
2017,06,26,07,25,15.30
2017,06,26,07,26,15.30
2017,06,26,07,27,15.30
2017,06,26,07,28,15.30
2017,06,26,07,29,15.40
2017,06,26,07,30,15.40
2017,06,26,07,31,15.40
2017,06,26,07,32,15.40
2017,06,26,07,33,15.50
2017,06,26,07,34,15.50
2017,06,26,07,35,15.50
2017,06,26,07,36,15.60
2017,06,26,07,37,15.60
2017,06,26,07,38,15.60
2017,06,26,07,39,15.60
2017,06,26,07,40,15.60
2017,06,26,07,41,15.70
2017,06,26,07,42,15.70
2017,06,26,07,43,15.70
2017,06,26,07,44,15.80
2017,06,26,07,45,15.80
2017,06,26,07,46,15.80
2017,06,26,07,47,15.80
2017,06,26,07,48,15.80
2017,06,26,07,49,15.90
2017,06,26,07,50,15.90
2017,06,26,07,51,16.00
2017,06,26,07,52,16.00
2017,06,26,07,53,16.10
2017,06,26,07,54,16.10
2017,06,26,07,55,16.10
2017,06,26,07,56,16.20
2017,06,26,07,57,16.20
2017,06,26,07,58,16.20
2017,06,26,07,59,16.20
2017,06,26,08,00,16.20
2017,06,26,08,01,16.30
2017,06,26,08,02,16.30
2017,06,26,08,03,16.30
2017,06,26,08,04,16.40
2017,06,26,08,05,16.40
2017,06,26,08,06,16.40
2017,06,26,08,07,16.40
2017,06,26,08,08,16.40
2017,06,26,08,09,16.30
2017,06,26,08,10,16.30
2017,06,26,08,11,16.20
2017,06,26,08,12,16.00
2017,06,26,08,13,15.80
2017,06,26,08,14,15.60
2017,06,26,08,15,15.40
2017,06,26,08,16,15.30
2017,06,26,08,17,15.10
2017,06,26,08,18,15.00
2017,06,26,08,19,14.90
2017,06,26,08,20,14.80
2017,06,26,08,21,14.80
2017,06,26,08,22,14.80
2017,06,26,08,23,14.80
2017,06,26,08,24,14.80
2017,06,26,08,25,14.80
2017,06,26,08,26,14.90
2017,06,26,08,27,14.90
2017,06,26,08,28,14.90
2017,06,26,08,29,15.00
2017,06,26,08,30,15.00
2017,06,26,08,31,15.10
2017,06,26,08,32,15.10
2017,06,26,08,33,15.10
2017,06,26,08,34,15.20
2017,06,26,08,35,15.20
2017,06,26,08,36,15.20
2017,06,26,08,37,15.20
2017,06,26,08,38,15.30
2017,06,26,08,39,15.30
2017,06,26,08,40,15.30
2017,06,26,08,41,15.30
2017,06,26,08,42,15.30
2017,06,26,08,43,15.30
2017,06,26,08,44,15.30
2017,06,26,08,45,15.20
2017,06,26,08,46,15.10
2017,06,26,08,47,15.00
2017,06,26,08,48,15.00
2017,06,26,08,49,14.90
2017,06,26,08,50,14.90
2017,06,26,08,51,14.90
2017,06,26,08,52,14.90
2017,06,26,08,53,14.90
2017,06,26,08,54,15.00
2017,06,26,08,55,15.10
2017,06,26,08,56,15.20
2017,06,26,08,57,15.30
2017,06,26,08,58,15.30
2017,06,26,08,59,15.30
2017,06,26,09,00,15.40
2017,06,26,09,01,15.50
2017,06,26,09,02,15.60
2017,06,26,09,03,15.60
2017,06,26,09,04,15.70
2017,06,26,09,05,15.70
2017,06,26,09,06,15.70
2017,06,26,09,07,15.70
2017,06,26,09,08,15.70
2017,06,26,09,09,15.80
2017,06,26,09,10,15.90
2017,06,26,09,11,15.90
2017,06,26,09,12,16.00
2017,06,26,09,13,16.10
2017,06,26,09,14,16.10
2017,06,26,09,15,16.20
2017,06,26,09,16,16.30
2017,06,26,09,17,16.30
2017,06,26,09,18,16.30
2017,06,26,09,19,16.30
2017,06,26,09,20,16.40
2017,06,26,09,21,16.40
2017,06,26,09,22,16.50
2017,06,26,09,23,16.50
2017,06,26,09,24,16.50
2017,06,26,09,25,16.50
2017,06,26,09,26,16.50
2017,06,26,09,27,16.50
2017,06,26,09,28,16.50
2017,06,26,09,29,16.30
2017,06,26,09,30,16.10
2017,06,26,09,31,16.00
2017,06,26,09,32,15.90
2017,06,26,09,33,15.80
2017,06,26,09,34,15.80
2017,06,26,09,35,15.80
2017,06,26,09,36,15.80
2017,06,26,09,37,15.70
2017,06,26,09,38,15.70
2017,06,26,09,39,15.60
2017,06,26,09,40,15.60
2017,06,26,09,41,15.60
2017,06,26,09,42,15.60
2017,06,26,09,43,15.60
2017,06,26,09,44,15.60
2017,06,26,09,45,15.70
2017,06,26,09,46,15.80
2017,06,26,09,47,15.80
2017,06,26,09,48,15.80
2017,06,26,09,49,15.80
2017,06,26,09,50,15.90
2017,06,26,09,51,15.90
2017,06,26,09,52,15.90
2017,06,26,09,53,15.90
2017,06,26,09,54,15.90
2017,06,26,09,55,16.00
2017,06,26,09,56,16.00
2017,06,26,09,57,16.00
2017,06,26,09,58,16.00
2017,06,26,09,59,16.00
2017,06,26,10,00,16.00
2017,06,26,10,01,16.10
2017,06,26,10,02,16.10
2017,06,26,10,03,16.10
2017,06,26,10,04,16.10
2017,06,26,10,05,16.10
2017,06,26,10,06,16.10
2017,06,26,10,07,16.10
2017,06,26,10,08,16.10
2017,06,26,10,09,16.10
2017,06,26,10,10,16.10
2017,06,26,10,11,16.10
2017,06,26,10,12,16.20
2017,06,26,10,13,16.20
2017,06,26,10,14,16.30
2017,06,26,10,15,16.30
2017,06,26,10,16,16.40
2017,06,26,10,17,16.40
2017,06,26,10,18,16.50
2017,06,26,10,19,16.60
2017,06,26,10,20,16.70
2017,06,26,10,21,16.70
2017,06,26,10,22,16.70
2017,06,26,10,23,16.80
2017,06,26,10,24,16.80
2017,06,26,10,25,16.80
2017,06,26,10,26,16.80
2017,06,26,10,27,16.90
2017,06,26,10,28,16.90
2017,06,26,10,29,16.90
2017,06,26,10,30,16.90
2017,06,26,10,31,16.90
2017,06,26,10,32,16.90
2017,06,26,10,33,16.90
2017,06,26,10,34,16.90
2017,06,26,10,35,16.90
2017,06,26,10,36,16.90
2017,06,26,10,37,16.90
2017,06,26,10,38,16.90
2017,06,26,10,39,17.00
2017,06,26,10,40,17.10
2017,06,26,10,41,17.20
2017,06,26,10,42,17.20
2017,06,26,10,43,17.20
2017,06,26,10,44,17.20
2017,06,26,10,45,17.20
2017,06,26,10,46,17.30
2017,06,26,10,47,17.30
2017,06,26,10,48,17.40
2017,06,26,10,49,17.40
2017,06,26,10,50,17.30
2017,06,26,10,51,17.00
2017,06,26,10,52,16.80
2017,06,26,10,53,16.70
2017,06,26,10,54,16.60
2017,06,26,10,55,16.50
2017,06,26,10,56,16.30
2017,06,26,10,57,16.20
2017,06,26,10,58,16.10
2017,06,26,10,59,16.00
2017,06,26,11,00,16.00
2017,06,26,11,01,15.90
2017,06,26,11,02,15.80
2017,06,26,11,03,15.80
2017,06,26,11,04,15.80
2017,06,26,11,05,15.80
2017,06,26,11,06,15.80
2017,06,26,11,07,15.80
2017,06,26,11,08,15.80
2017,06,26,11,09,15.80
2017,06,26,11,10,15.80
2017,06,26,11,11,15.80
2017,06,26,11,12,15.90
2017,06,26,11,13,15.90
2017,06,26,11,14,15.90
2017,06,26,11,15,16.00
2017,06,26,11,16,16.00
2017,06,26,11,17,16.10
2017,06,26,11,18,16.20
2017,06,26,11,19,16.20
2017,06,26,11,20,16.10
2017,06,26,11,21,16.10
2017,06,26,11,22,16.00
2017,06,26,11,23,16.00
2017,06,26,11,24,16.00
2017,06,26,11,25,15.90
2017,06,26,11,26,15.90
2017,06,26,11,27,15.90
2017,06,26,11,28,15.90
2017,06,26,11,29,16.00
2017,06,26,11,30,16.00
2017,06,26,11,31,15.90
2017,06,26,11,32,15.90
2017,06,26,11,33,16.00
2017,06,26,11,34,15.90
2017,06,26,11,35,15.90
2017,06,26,11,36,15.90
2017,06,26,11,37,15.80
2017,06,26,11,38,15.80
2017,06,26,11,39,15.70
2017,06,26,11,40,15.70
2017,06,26,11,41,15.80
2017,06,26,11,42,15.80
2017,06,26,11,43,15.80
2017,06,26,11,44,15.80
2017,06,26,11,45,15.80
2017,06,26,11,46,15.80
2017,06,26,11,47,15.90
2017,06,26,11,48,15.80
2017,06,26,11,49,15.80
2017,06,26,11,50,15.80
2017,06,26,11,51,15.80
2017,06,26,11,52,15.80
2017,06,26,11,53,15.90
2017,06,26,11,54,16.00
2017,06,26,11,55,16.10
2017,06,26,11,56,16.20
2017,06,26,11,57,16.30
2017,06,26,11,58,16.40
2017,06,26,11,59,16.50
2017,06,26,12,00,16.50
2017,06,26,12,01,16.70
2017,06,26,12,02,16.70
2017,06,26,12,03,16.60
2017,06,26,12,04,16.50
2017,06,26,12,05,16.50
2017,06,26,12,06,16.60
2017,06,26,12,07,16.60
2017,06,26,12,08,16.50
2017,06,26,12,09,16.50
2017,06,26,12,10,16.40
2017,06,26,12,11,16.40
2017,06,26,12,12,16.30
2017,06,26,12,13,16.30
2017,06,26,12,14,16.40
2017,06,26,12,15,16.30
2017,06,26,12,16,16.20
2017,06,26,12,17,16.10
2017,06,26,12,18,16.00
2017,06,26,12,19,15.90
2017,06,26,12,20,15.90
2017,06,26,12,21,15.90
2017,06,26,12,22,16.00
2017,06,26,12,23,16.00
2017,06,26,12,24,16.00
2017,06,26,12,25,16.00
2017,06,26,12,26,16.00
2017,06,26,12,27,15.90
2017,06,26,12,28,15.90
2017,06,26,12,29,15.80
2017,06,26,12,30,15.90
2017,06,26,12,31,15.90
2017,06,26,12,32,15.80
2017,06,26,12,33,15.80
2017,06,26,12,34,15.80
2017,06,26,12,35,15.90
2017,06,26,12,36,15.90
2017,06,26,12,37,15.90
2017,06,26,12,38,15.90
2017,06,26,12,39,15.90
2017,06,26,12,40,15.90
2017,06,26,12,41,15.90
2017,06,26,12,42,16.00
2017,06,26,12,43,16.00
2017,06,26,12,44,16.00
2017,06,26,12,45,16.10
2017,06,26,12,46,16.10
2017,06,26,12,47,16.20
2017,06,26,12,48,16.30
2017,06,26,12,49,16.20
2017,06,26,12,50,16.20
2017,06,26,12,51,16.20
2017,06,26,12,52,16.20
2017,06,26,12,53,16.20
2017,06,26,12,54,16.30
2017,06,26,12,55,16.40
2017,06,26,12,56,16.50
2017,06,26,12,57,16.50
2017,06,26,12,58,16.40
2017,06,26,12,59,16.30
2017,06,26,13,00,16.20
2017,06,26,13,01,16.10
2017,06,26,13,02,15.90
2017,06,26,13,03,15.70
2017,06,26,13,04,15.70
2017,06,26,13,05,15.50
2017,06,26,13,06,15.20
2017,06,26,13,07,15.10
2017,06,26,13,08,15.10
2017,06,26,13,09,15.20
2017,06,26,13,10,15.30
2017,06,26,13,11,15.30
2017,06,26,13,12,15.40
2017,06,26,13,13,15.40
2017,06,26,13,14,15.30
2017,06,26,13,15,15.20
2017,06,26,13,16,15.20
2017,06,26,13,17,15.20
2017,06,26,13,18,15.10
2017,06,26,13,19,15.00
2017,06,26,13,20,15.00
2017,06,26,13,21,14.90
2017,06,26,13,22,14.90
2017,06,26,13,23,14.80
2017,06,26,13,24,14.80
2017,06,26,13,25,14.80
2017,06,26,13,26,14.80
2017,06,26,13,27,14.80
2017,06,26,13,28,14.80
2017,06,26,13,29,14.90
2017,06,26,13,30,15.00
2017,06,26,13,31,15.10
2017,06,26,13,32,15.20
2017,06,26,13,33,15.20
2017,06,26,13,34,15.20
2017,06,26,13,35,15.20
2017,06,26,13,36,15.30
2017,06,26,13,37,15.40
2017,06,26,13,38,15.50
2017,06,26,13,39,15.60
2017,06,26,13,40,15.70
2017,06,26,13,41,15.70
2017,06,26,13,42,15.70
2017,06,26,13,43,15.70
2017,06,26,13,44,15.70
2017,06,26,13,45,15.80
2017,06,26,13,46,15.90
2017,06,26,13,47,15.90
2017,06,26,13,48,15.90
2017,06,26,13,49,16.00
2017,06,26,13,50,16.00
2017,06,26,13,51,16.10
2017,06,26,13,52,16.20
2017,06,26,13,53,16.20
2017,06,26,13,54,16.10
2017,06,26,13,55,16.00
2017,06,26,13,56,16.00
2017,06,26,13,57,16.00
2017,06,26,13,58,15.90
2017,06,26,13,59,15.80
2017,06,26,14,00,15.90
2017,06,26,14,01,16.00
2017,06,26,14,02,16.10
2017,06,26,14,03,16.10
2017,06,26,14,04,16.00
2017,06,26,14,05,15.90
2017,06,26,14,06,15.90
2017,06,26,14,07,16.00
2017,06,26,14,08,16.10
2017,06,26,14,09,16.20
2017,06,26,14,10,16.30
2017,06,26,14,11,16.40
2017,06,26,14,12,16.60
2017,06,26,14,13,16.70
2017,06,26,14,14,16.80
2017,06,26,14,15,16.90
2017,06,26,14,16,17.10
2017,06,26,14,17,17.20
2017,06,26,14,18,17.20
2017,06,26,14,19,17.10
2017,06,26,14,20,17.10
2017,06,26,14,21,17.20
2017,06,26,14,22,17.20
2017,06,26,14,23,17.30
2017,06,26,14,24,17.30
2017,06,26,14,25,17.30
2017,06,26,14,26,17.30
2017,06,26,14,27,17.40
2017,06,26,14,28,17.50
2017,06,26,14,29,17.60
2017,06,26,14,30,17.60
2017,06,26,14,31,17.70
2017,06,26,14,32,17.80
2017,06,26,14,33,18.00
2017,06,26,14,34,18.20
2017,06,26,14,35,18.30
2017,06,26,14,36,18.40
2017,06,26,14,37,18.50
2017,06,26,14,38,18.70
2017,06,26,14,39,18.80
2017,06,26,14,40,18.90
2017,06,26,14,41,19.00
2017,06,26,14,42,19.10
2017,06,26,14,43,19.20
2017,06,26,14,44,19.40
2017,06,26,14,45,19.60
2017,06,26,14,46,19.70
2017,06,26,14,47,19.90
2017,06,26,14,48,20.20
2017,06,26,14,49,20.40
2017,06,26,14,50,20.70
2017,06,26,14,51,20.90
2017,06,26,14,52,21.10
2017,06,26,14,53,21.30
2017,06,26,14,54,21.40
2017,06,26,14,55,21.60
2017,06,26,14,56,21.60
2017,06,26,14,57,21.80
2017,06,26,14,58,21.90
2017,06,26,14,59,22.10
2017,06,26,15,00,22.20
2017,06,26,15,01,22.40
2017,06,26,15,02,22.50
2017,06,26,15,03,22.60
2017,06,26,15,04,22.60
2017,06,26,15,05,22.70
2017,06,26,15,06,22.90
2017,06,26,15,07,22.90
2017,06,26,15,08,22.90
2017,06,26,15,09,23.00
2017,06,26,15,10,23.10
2017,06,26,15,11,23.20
2017,06,26,15,12,23.30
2017,06,26,15,13,23.30
2017,06,26,15,14,23.30
2017,06,26,15,15,23.30
2017,06,26,15,16,23.30
2017,06,26,15,17,23.20
2017,06,26,15,18,23.20
2017,06,26,15,19,23.30
2017,06,26,15,20,23.30
2017,06,26,15,21,23.40
2017,06,26,15,22,23.50
2017,06,26,15,23,23.60
2017,06,26,15,24,23.60
2017,06,26,15,25,23.70
2017,06,26,15,26,23.70
2017,06,26,15,27,23.70
2017,06,26,15,28,23.80
2017,06,26,15,29,23.80
2017,06,26,15,30,23.80
2017,06,26,15,31,23.90
2017,06,26,15,32,24.00
2017,06,26,15,33,24.20
2017,06,26,15,34,24.30
2017,06,26,15,35,24.30
2017,06,26,15,36,24.50
2017,06,26,15,37,24.70
2017,06,26,15,38,25.00
2017,06,26,15,39,25.10
2017,06,26,15,40,25.30
2017,06,26,15,41,25.40
2017,06,26,15,42,25.50
2017,06,26,15,43,25.60
2017,06,26,15,44,25.70
2017,06,26,15,45,25.70
2017,06,26,15,46,25.70
2017,06,26,15,47,25.70
2017,06,26,15,48,25.50
2017,06,26,15,49,25.40
2017,06,26,15,50,25.40
2017,06,26,15,51,25.40
2017,06,26,15,52,25.40
2017,06,26,15,53,25.40
2017,06,26,15,54,25.40
2017,06,26,15,55,25.40
2017,06,26,15,56,25.30
2017,06,26,15,57,25.20
2017,06,26,15,58,25.10
2017,06,26,15,59,24.80
2017,06,26,16,00,24.70
2017,06,26,16,01,24.50
2017,06,26,16,02,24.40
2017,06,26,16,03,24.30
2017,06,26,16,04,24.20
2017,06,26,16,05,24.20
2017,06,26,16,06,24.10
2017,06,26,16,07,24.10
2017,06,26,16,08,24.10
2017,06,26,16,09,24.10
2017,06,26,16,10,24.10
2017,06,26,16,11,24.00
2017,06,26,16,12,23.90
2017,06,26,16,13,23.80
2017,06,26,16,14,23.80
2017,06,26,16,15,23.80
2017,06,26,16,16,23.90
2017,06,26,16,17,24.00
2017,06,26,16,18,24.10
2017,06,26,16,19,24.00
2017,06,26,16,20,23.90
2017,06,26,16,21,23.90
2017,06,26,16,22,23.90
2017,06,26,16,23,24.00
2017,06,26,16,24,24.00
2017,06,26,16,25,24.00
2017,06,26,16,26,24.00
2017,06,26,16,27,24.00
2017,06,26,16,28,24.00
2017,06,26,16,29,23.90
2017,06,26,16,30,24.00
2017,06,26,16,31,24.10
2017,06,26,16,32,24.00
2017,06,26,16,33,23.90
2017,06,26,16,34,23.70
2017,06,26,16,35,23.60
2017,06,26,16,36,23.50
2017,06,26,16,37,23.40
2017,06,26,16,38,23.30
2017,06,26,16,39,23.20
2017,06,26,16,40,23.20
2017,06,26,16,41,23.10
2017,06,26,16,42,23.00
2017,06,26,16,43,22.90
2017,06,26,16,44,22.90
2017,06,26,16,45,22.90
2017,06,26,16,46,23.00
2017,06,26,16,47,23.00
2017,06,26,16,48,23.10
2017,06,26,16,49,23.10
2017,06,26,16,50,23.00
2017,06,26,16,51,23.10
2017,06,26,16,52,23.00
2017,06,26,16,53,22.90
2017,06,26,16,54,22.90
2017,06,26,16,55,22.90
2017,06,26,16,56,22.80
2017,06,26,16,57,22.60
2017,06,26,16,58,22.30
2017,06,26,16,59,22.10
2017,06,26,17,00,22.00
2017,06,26,17,01,21.90
2017,06,26,17,02,21.90
2017,06,26,17,03,21.90
2017,06,26,17,04,21.90
2017,06,26,17,05,21.90
2017,06,26,17,06,21.90
2017,06,26,17,07,21.90
2017,06,26,17,08,22.00
2017,06,26,17,09,22.00
2017,06,26,17,10,22.10
2017,06,26,17,11,22.20
2017,06,26,17,12,22.30
2017,06,26,17,13,22.30
2017,06,26,17,14,22.30
2017,06,26,17,15,22.30
2017,06,26,17,16,22.40
2017,06,26,17,17,22.50
2017,06,26,17,18,22.60
2017,06,26,17,19,22.60